Regional Weather Roundup
Issued by NWS

Home | Current Version | Previous Version | Text Only | Print | Product List | Glossary Off
Versions: 1 2 3 4 5 6 7 8 9 10 11 12 13 14 15 16 17 18 19 20 21 22 23 24 25 26 27

000
ASUS45 KSLC 162310
RWRUT

UTAH REGIONAL WEATHER ROUNDUP
NATIONAL WEATHER SERVICE SALT LAKE CITY UT
500 PM MDT WED APR 16 2014

UTZ001>011-023>025-170000-

NORTHERN UTAH

CITY           SKY/WX    TMP DP  RH WIND       PRES   REMARKS
HILL AFB       PTSUNNY   54  16  22 SW6       29.99S
LOGAN          SUNNY     56  19  23 SW9       29.97F
OGDEN          SUNNY     55  16  21 NW7       29.98F
PROVO AIRPORT  PTSUNNY   57  19  23 W13       29.98S
SALT LAKE CITY PTSUNNY   57   5  12 NW7       29.99F
VERNAL         MOSUNNY   56  12  17 CALM      29.92F
WENDOVER       SUNNY     61  16  17 E9        29.96F
HEBER CITY     SUNNY     55  18  22 SW16      29.94S
WEST JORDAN    SUNNY     54  19  26 N16G23    30.00S

$$

UTZ012>022-026-027-170000-

SOUTHERN UTAH

CITY           SKY/WX    TMP DP  RH WIND       PRES   REMARKS
BRYCE CANYON   PTSUNNY   51  24  34 NW14G26   30.00S
CEDAR CITY     MOSUNNY   61  22  22 VRB5      29.94F
MILFORD        SUNNY     62  21  20 NE13      29.94F
MOAB/CYNLANDS  SUNNY     63  15  15 SW10      29.87F
PRICE          SUNNY     58  15  18 W14G21    29.92F
ST GEORGE      CLEAR     79  27  14 NW9       29.81F

$$

REGIONAL REPORTS     COLORADO/ARIZONA

CITY           SKY/WX    TMP DP  RH WIND       PRES   REMARKS
CRAIG, CO      PTSUNNY   50  11  20 W9        29.95S
GRAND JUNCTION CLOUDY    57  12  17 NW7       29.89S
RIFLE          CLOUDY    58  11  15 SW6       29.89R
MONTROSE       CLOUDY    57  17  21 N8        29.92S
CORTEZ         PTSUNNY   56  25  30 W21G29    29.91R
PAGE, AZ       MOSUNNY   69  24  18 E5        29.85F
GRAND CANYON   MOSUNNY   65  12  12 VRB7G17   29.94F
KINGMAN        SUNNY     83   8   6 W7        29.79F
FLAGSTAFF      PTSUNNY   63   9  12 W12G24    29.95F

$$

REGIONAL REPORTS    NEVADA/IDAHO/WYOMING

CITY           SKY/WX    TMP DP  RH WIND       PRES   REMARKS
LAS VEGAS, NV  MOSUNNY   86  16   7 S5        29.69F
ELY            MOSUNNY   57  25  29 N9G17     29.99S
ELKO           PTSUNNY   56  26  31 SW13      29.97F
POCATELLO, ID  MOSUNNY   56   9  15 SW16G23   29.98F
BURLEY         SUNNY     57  15  19 W10G18    29.97F
EVANSTON, WY   SUNNY     48   9  20 NW14G20   29.98S
ROCK SPRINGS   MOSUNNY   50   5  16 NW14G23   29.95S

$$



USA.gov is the U.S. government's official web portal to all federal, state and local government web resources and services.